Lid_Strength_Index
8 11 13 11 11 12 12 13 13 11 9 11 12 11 10 10 13 13 13 13 11 7 5 4 3 2 3 3 2 2 2 1 1 2 2 2 2 2 3 2 2 2 1 1
11 13 10 9 10 12 13 13 14 11 9 11 12 12 11 10 10 12 12 13 13 11 8 5 4 3 3 3 3 2 2 1 1 1 1 2 2 2 1 2 2 2 2 1
13 11 8 10 12 13 13 14 13 13 11 10 12 13 12 10 10 9 10 11 11 12 11 8 6 4 3 3 3 3 2 2 2 1 1 3 2 4 4 3 2 2 2 2
11 9 10 11 12 11 15 11 12 13 14 17 11 19 13 11 10 10 10 10 10 11 11 10 7 5 4 3 3 3 2 2 2 1 1 1 2 3 2 1 1 1 2 2
12 11 11 12 12 10 13 10 11 12 14 14 14 17 16 11 12 11 10 10 10 10 10 11 9 6 4 4 3 3 3 3 2 2 1 2 2 1 1 2 2 2 2 1
11 10 10 10 9 9 9 11 11 12 14 19 15 16 15 14 12 12 10 9 9 10 10 10 9 7 5 4 3 3 3 3 3 2 2 2 2 2 2 3 2 2 2 2
12 12 10 10 12 11 11 14 19 20 20 20 16 16 14 12 12 12 11 11 11 10 10 11 11 9 6 5 4 3 3 3 3 3 2 2 2 2 2 3 2 3 3 4
16 18 12 9 11 13 12 13 18 22 21 19 17 18 14 12 10 9 11 12 11 12 12 12 11 9 7 6 4 3 3 3 3 3 3 2 2 2 2 2 2 2 2 2
16 16 11 10 9 10 13 16 11 16 17 19 18 16 14 13 13 12 11 11 11 12 13 12 11 8 6 5 5 4 4 3 2 3 2 2 2 2 2 2 2 2 2 2
13 16 12 10 9 9 11 10 16 15 21 22 18 17 16 15 14 13 12 12 11 12 13 13 12 9 7 5 4 4 3 2 2 2 2 2 2 2 2 3 3 3 3 2
11 13 14 11 13 13 13 14 14 14 16 20 21 16 13 12 11 11 12 12 12 12 14 13 12 11 8 6 5 4 3 3 3 3 2 2 2 2 2 3 3 3 3 3
9 12 16 14 10 9 10 12 13 17 19 17 18 16 12 14 14 14 14 14 13 13 13 14 14 14 11 8 6 5 4 4 3 3 3 3 3 4 3 3 5 4 4 5
10 13 17 16 13 11 13 12 11 12 13 17 19 16 11 14 15 15 15 14 14 14 14 14 14 14 13 10 8 7 6 5 6 5 5 6 6 5 5 6 8 9 8 8
8 12 15 17 16 13 15 13 12 13 17 16 16 14 11 14 14 15 15 15 15 15 14 14 13 13 14 12 10 10 9 8 8 6 6 7 7 7 8 10 10 10 10 10
11 16 14 13 12 13 14 13 13 14 14 16 14 14 11 9 9 9 14 15 15 14 14 14 13 13 13 13 11 11 10 9 8 7 7 7 9 9 10 11 11 11 12 12
10 19 14 15 13 13 14 14 15 13 12 13 13 13 8 8 8 9 13 15 15 14 13 14 13 12 13 12 12 11 11 10 9 8 9 10 10 11 12 12 13 13 14 13
12 16 18 21 15 15 19 16 14 13 11 12 15 11 9 8 8 9 9 12 14 14 12 13 13 13 12 12 12 11 11 11 10 10 11 11 12 12 13 14 14 14 15 15
14 15 16 21 22 23 16 11 10 11 10 9 10 9 8 8 7 8 10 11 12 13 13 12 12 12 12 12 12 12 12 12 12 13 12 13 13 13 14 14 14 15 15 14
10 13 20 23 28 19 16 14 15 14 13 10 9 9 8 8 9 9 8 9 9 10 12 11 11 12 12 12 12 12 13 13 13 13 13 13 12 14 14 15 15 16 15 15
10 10 14 27 27 26 16 14 12 11 16 11 9 9 8 9 12 9 6 8 10 11 13 12 12 13 12 12 13 13 13 13 12 13 13 13 13 14 14 15 16 17 16 17
14 13 15 15 17 17 14 12 9 16 15 10 9 8 8 10 8 7 7 7 7 10 13 13 12 12 12 13 13 14 13 12 12 14 15 16 16 15 15 17 17 17 18 17
15 15 15 15 17 19 12 12 13 10 10 10 9 8 8 8 8 7 7 8 10 13 13 13 14 15 15 13 13 13 13 13 15 15 16 17 17 18 17 16 17 19 19 20
16 13 16 14 15 11 10 10 8 9 9 9 10 9 9 9 8 7 7 8 11 13 15 15 13 15 15 13 12 14 14 15 16 16 16 18 18 18 17 17 19 20 20 20
13 11 12 13 12 11 9 8 8 9 10 10 10 12 11 11 10 10 9 8 9 14 15 17 15 16 17 15 15 14 16 16 15 16 18 18 19 19 19 19 19 19 19 20
12 11 12 12 11 10 9 9 8 9 11 12 12 12 12 13 13 13 12 11 10 15 17 15 15 15 17 17 17 16 16 16 16 17 19 19 19 19 20 20 19 19 21 19
10 11 12 13 10 9 8 7 7 10 11 12 11 11 10 13 14 14 14 15 16 16 17 17 17 17 19 18 19 18 16 16 17 19 19 19 19 20 20 19 20 16 16 15